FENGYUN 1C DEB, 31236

Orbit data source: Space-Track

FENGYUN 1C DEB, 31236 is space debris in SSO originally from a launch on Mon, 10 May 1999 UTC launched from the Taiyaun Space Center, China (TSC). Fengyun 1C debris stems from the Chinese weather satellite Fengyun-1C, which was intentionally destroyed by a Chinese anti-satellite missile in 2007. This event dramatically increased the amount of space debris, with thousands of trackable fragments posing hazards to satellites and human spaceflight. The Fengyun 1C debris cloud has become a focal point in discussions about space sustainability and the need for international regulations to prevent the creation of new debris.

Loading next visibility...
Identifier
31236, 1999-025BLS
Orbit
SSO
Country
Flag of CNCN / PRC
Related business
Manufacturer
Unknown
Mission
Spacecraft
Bus & Motor
Unknown
Mass
Unknown
Launch date (UTC)
1999-05-10 (26 years ago)
Launch vehicle
Unknown
Launch site
Taiyaun Space Center, China (TSC)
Object type
Payload
Rocket body
Debris
Shape & HBR
Unknown shape, 0.1 m
Radar Cross Section
Small (<0.1 m²)

Expand to show TLE details & history
Last TLE update: 1 day ago

TLE from 1 day ago
0 FENGYUN 1C DEB
1 31236U 99025BLS 25300.34924097  .00003696  00000-0  22573-2 0  9993
2 31236  98.5447 259.5849 0311478 173.9021 186.6071 13.85099986603829
Epoch: 2025-10-27T08:22Z
TLE epoch observation values (Epoch: 2025-10-27T08:22:54.419Z)
Latitude
0.00001°
Longitude
97.90579°
Altitude
1,175.474 km
Speed
7.152 km/s
True Right ascension
17h 18m 20s
True Declination
0° 00' 00"
Sunlit
Object was in daylight at epoch
Visualization orbit readout
Latitude
Unknown
Longitude
Unknown
Altitude
Unknown
Speed
Unknown
Apparent Right ascension
Unknown
Apparent Declination
Unknown
Sunlit
N/A
Visualization observer readout
Local Sidereal Time
05:00:42
Azimuth
Unknown
Elevation
Unknown
Doppler factor
Unknown
Orbital elements
Apogee altitude
1,171.086 km
Perigee altitude
715.008 km
Semi-major axis
7,321.184 km
Eccentricity
0.03115
Inclination
98.5447°
RAAN
259.5849°
Arg. of periapsis
173.9021°
True anomaly
186.21174°
Mean anomaly
186.6071°
Eccentric anomaly
186.40792°
Mean motion
3.46474 °/min
Orbital period
103.9 mins
BSTAR
0.0022573
Loading maneuver chart data...
Computing Atmospheric mass density...

Documentation

Showing up to 5 results
|